AirNav   Air Wisconsin pilot careers
 
 1005 users online  

5I2 Flora Municipal Airport
Flora, Indiana, USA

GOING TO FLORA?


FAA INFORMATION EFFECTIVE 11 OCTOBER 2018

Location

FAA Identifier: 5I2
Lat/Long: 40-32-23.1300N / 086-32-53.9990W
40-32.385500N / 086-32.899983W
40.5397583 / -86.5483331
(estimated)
Elevation: 710 ft. / 216 m (estimated)
Variation: 02W (1985)
From city: 2 miles SW of FLORA, IN
Time zone: UTC -4 (UTC -5 during Standard Time)
Zip code: 46929

Airport Operations

Airport use: Open to the public
Activation date: 02/1967
Control tower: no
ARTCC: CHICAGO CENTER
FSS: TERRE HAUTE FLIGHT SERVICE STATION
NOTAMs facility: HUF (NOTAM-D service available)
Attendance: UNATNDD
Wind indicator: lighted
Segmented circle: no
Lights: SS-SR

Airport Communications

CTAF: 122.9
WX AWOS-3P at GGP (13 nm NE): 118.5 (574-737-7310)
WX AWOS-3P at MCX (14 nm NW): 124.05 (574-583-0531)
WX AWOS-3 at FKR (16 nm S): 124.325 (765-654-0328)
WX ASOS at LAF (19 nm SW): PHONE 765-743-9687

Nearby radio navigation aids

VOR radial/distance  VOR name  Freq  Var
GUSr253/19.1GRISSOM VORTAC108.4502W
OKKr277/22.4KOKOMO VORTAC113.5005W
BVTr091/23.8BOILER VORTAC115.1001E
MZZr277/39.7MARION VOR/DME108.6003W

 
NDB name  Hdg/Dist  Freq  Var  ID
CRAWFORDSVILLE031/37.538804WCFJ -.-. ..-. .---

Airport Services

Parking: tiedowns
Airframe service: NONE
Powerplant service: NONE
Bottled oxygen: NONE
Bulk oxygen: NONE

Runway Information

Runway 9/27

Dimensions: 2143 x 93 ft. / 653 x 28 m
Surface: turf, in good condition
Runway edge lights: low intensity
RUNWAY 9  RUNWAY 27
Latitude: 40-32.418833N40-32.418833N
Longitude: 086-33.151833W086-32.681167W
Elevation: 710.0 ft.710.0 ft.
Traffic pattern: leftleft
Runway end identifier lights: nono
Obstructions: 15 ft. road, 285 ft. from runway, 20:1 slope to clear10 ft. crops, 200 ft. from runway, 20:1 slope to clear

Airport Ownership and Management from official FAA records

Ownership: Publicly-owned
Owner: TOWN OF FLORA
4 EAST MAIN ST
FLORA, IN 46929
Phone 574-967-4844
Manager: JORETTA TINSMAN
4 EAST MAIN ST
FLORA, IN 46929
Phone (574) 967-4844

Airport Operational Statistics

Aircraft based on the field: 7
Single engine airplanes: 4
Ultralights: 3
    
Aircraft operations: avg 38/week *
75% local general aviation
25% transient general aviation
* for 12-month period ending 31 December 2016

Instrument Procedures

There are no published instrument procedures at 5I2.

Some nearby airports with instrument procedures:

KGGP - Logansport/Cass County Airport (13 nm NE)
KMCX - White County Airport (14 nm NW)
KFKR - Frankfort Municipal Airport (16 nm S)
KGUS - Grissom Air Reserve Base (19 nm E)
KLAF - Purdue University Airport (19 nm SW)
 
Loc | Ops | Rwys | IFR | FBO | Links
Com | Nav | Svcs | Stats | Notes


 
Area around 5I2 (Flora Municipal Airport)
 
Road maps at: MapQuest Bing Google
 
Aerial photo
WARNING: Photo may not be current or correct
Aerial photo of 5I2 (Flora Municipal Airport)
Do you have a better or more recent aerial photo of Flora Municipal Airport that you would like to share? If so, please send us your photo.

 
Sectional chart

 
Airport distance calculator
Flying to Flora Municipal Airport? Find the distance to fly.

From to 5I2

Sunrise and sunset
Times for 21-Oct-2018
 Local
(UTC-4)
 Zulu
(UTC)
Morning civil twilight07:3711:37
Sunrise08:0512:05
Sunset18:5722:57
Evening civil twilight19:2523:25

Current date and time
Zulu (UTC)  21-Oct-2018 15:51:18
Local (UTC-4)  21-Oct-2018 11:51:18
 
METAR
KGGP 
13nm NE 
211535Z AUTO 26004KT 10SM CLR 04/M01 A3036 RMK AO2
KMCX 
14nm NW 
211535Z AUTO 24003KT 10SM CLR 05/M04 A3037 RMK AO2 T00451042
KFKR 
16nm S 
211535Z AUTO 00000KT 10SM CLR 07/M04 A3039 RMK AO2 T00701036
KGUS 
19nm E 
211456Z AUTO 29004KT 10SM CLR 03/M01 A3036 RMK AO2 SLP291 T00301008 50005 $
KLAF 
20nm W 
211454Z 00000KT 10SM CLR 03/M04 A3039 RMK AO2 SLP294 T00281044 58001
KOKK 
22nm E 
211456Z AUTO VRB04KT 10SM SCT034 04/M02 A3038 RMK AO2 SLP297 T00441017 50004
TAF
KGUS 
19nm E 
211100Z 2111/2217 VRB06KT 9999 BKN045 620455 QNH3027INS BECMG 2117/2118 29012KT 9999 SCT045 QNH3009INS BECMG 2214/2215 22010G15KT 9999 FEW025 QNH3007INS TX08/2120Z TNM01/2111Z
KLAF 
20nm W 
211121Z 2112/2212 26003KT P6SM SKC FM212300 21007KT P6SM SKC AMD LTD TO CLD VIS AND WIND TIL 211300
NOTAMs
Click for the latest NOTAMs
NOTAMs are issued by the DoD/FAA and will open in a separate window not controlled by AirNav.

 

 
 

Would you like to see your business listed on this page?

 If your business provides an interesting product or service to pilots, flight crews, aircraft, or users of the Flora Municipal Airport, you should consider listing it here.  To start the listing process, click on the button below
 
Add a business
 

Other Pages about Flora Municipal Airport

Update a link
 
Copyright © AirNav, LLC. All rights reserved. Privacy Policy  Contact